Location: Appeville
(49.3218°N, 1.3427°W)
Time: 22:40:58
(UTC+00:00)

ALOS - Pass Details

Date: 08 December 2019
Orbit: 684 x 685 km, 97.8° (Epoch: 17 January)

Event Time Altitude Azimuth Distance (km) Brightness Sun altitude
Rises 06:38:06 0° 5° (N) 3,064 5.4 -10.7°
Reaches altitude 10° 06:40:35 10° 354° (N) 2,144 4.5 -10.3°
Maximum altitude 06:44:34 28° 296° (WNW) 1,278 3.1 -9.7°
Drops below altitude 10° 06:48:31 10° 238° (WSW) 2,130 4.5 -9.1°
Sets 06:50:59 0° 227° (SW) 3,041 5.4 -8.8°
